Location: Cerezo de Arriba
(41.2389°N, 3.5585°W)
Time: 16:06:22
(UTC+00:00)

Cosmos 1842 Rocket - Pass Details

Date: 19 May 2025
Orbit: 601 x 626 km, 82.5° (Epoch: 22 June)

Event Time Altitude Azimuth Distance (km) Brightness Sun altitude
Exits shadow 23:02:51 55° 9° (N) 728 4.1 -26.8°
Drops below altitude 10° 23:06:15 10° 8° (N) 1,952 6.9 -27.0°
Sets 23:08:28 0° 9° (N) 2,859 8.0 -27.1°
